OPS 4682 DEB, 38410

Orbit data source: Space-Track

OPS 4682 DEB, 38410 is space debris in LEO originally from a launch on Sat, 03 Apr 1965 UTC launched from the Air Force Western Test Range (AFWTR). Debris objects in space refer to the collection of defunct objects orbiting the Earth. Examples of debris include non-operational satellites, rocket bodies, and fragments generated from explosions, collisions, or faulty payload assembly.

Loading next visibility...
Identifier
38410, 1965-027DP
Orbit
LEO
Country
Flag of USUS
Related business
Manufacturer
Unknown
Mission
Spacecraft
Bus & Motor
Unknown
Mass
Unknown
Launch date (UTC)
1965-04-03 (61 years ago)
Launch vehicle
Unknown
Launch site
Air Force Western Test Range (AFWTR)
Object type
Payload
Rocket body
Debris
Shape & HBR
Unknown shape, 0.1 m
Radar Cross Section
Small (<0.1 m²)

Expand to show TLE details & history
Last TLE update: 2 days ago

TLE from 2 days ago
0 OPS 4682 DEB
1 38410U 65027DP  25347.35195348  .00000766  00000-0  26075-2 0  9996
2 38410  90.2404   6.6552 0031498 235.4494 124.3653 12.97492365606900
Epoch: 2025-12-13T08:26Z
TLE epoch observation values (Epoch: 2025-12-13T08:26:48.780Z)
Latitude
-0.00002°
Longitude
157.67149°
Altitude
1,288.463 km
Speed
7.205 km/s
True Right ascension
00h 26m 37s
True Declination
0° 00' 00"
Sunlit
Object was in daylight at epoch
Visualization orbit readout
Latitude
Unknown
Longitude
Unknown
Altitude
Unknown
Speed
Unknown
Apparent Right ascension
Unknown
Apparent Declination
Unknown
Sunlit
N/A
Visualization observer readout
Local Sidereal Time
13:21:46
Azimuth
Unknown
Elevation
Unknown
Doppler factor
Unknown
Orbital elements
Apogee altitude
1,293.145 km
Perigee altitude
1,244.971 km
Semi-major axis
7,647.195 km
Eccentricity
0.00315
Inclination
90.2404°
RAAN
6.6552°
Arg. of periapsis
235.4494°
True anomaly
124.66258°
Mean anomaly
124.3653°
Eccentric anomaly
124.51401°
Mean motion
3.24556 °/min
Orbital period
110.92 mins
BSTAR
0.0026075
Loading maneuver chart data...
Computing Atmospheric mass density...
Loading historical data...
Loading historical data...
Loading historical data...
Loading historical data...
Loading historical data...
Loading historical data...
Loading historical data...

Documentation

Showing up to 5 results
|